Weather History for Sharm El Sheikh, Egypt

Change the Weather History Date:

Wednesday, December 4, 2013

  Actual Average Record
Temperature  
Mean Temperature 78 °F -  
Max Temperature 86 °F - - ()
Min Temperature 71 °F - - ()
Cooling Degree Days 14    
Growing Degree Days 28 (Base 50)    
Moisture  
Dew Point 62 °F    
Average Humidity 61    
Maximum Humidity 73    
Minimum Humidity 45    
Precipitation  
Precipitation 0.00 in - - ()
Sea Level Pressure  
Sea Level Pressure 29.86 in    
Wind  
Wind Speed 3 mph ()    
Max Wind Speed 9 mph    
Max Gust Speed -    
Visibility 6.2 miles    
Events      
T = Trace of Precipitation, MM = Missing Value Source: Averaged Metar Reports

Daily Weather History Graph

Daily Weather History Graph

Search for Another Location

Airport:

Trip Planner

Search our weather history database for the weather conditions in past years. The results will help you decide how hot, cold, wet, or windy it might be!

Date:

Astronomy

Dec. 04, 2013 Rise Set
Actual Time 6:18 AM EET 4:46 PM EET
Civil Twilight 5:53 AM EET 5:12 PM EET
Nautical Twilight 5:24 AM EET 5:41 PM EET
Astronomical Twilight 4:55 AM EET 6:09 PM EET
Moon 7:29 AM EET (12/4) 6:30 PM EET (12/4)
Length of Visible Light 11h 19m
Length of Day
10h 27m
Waxing Crescent, 3% of the Moon is Illuminated
Dec 4
Waxing Crescent
Dec 9
First Quarter
Dec 17
Full
Dec 25
Last Quarter
Jan 1
New

Hourly Weather History & Observations

Time (EET) Temp. Heat Index Dew Point Humidity Pressure Visibility Wind Dir Wind Speed Gust Speed Precip Events Conditions
12:00 AM 71.6 °F - 60.8 °F 69% 29.86 in - North 2.3 mph - N/A   Clear
1:00 AM 73.4 °F - 62.6 °F 69% 29.86 in - Variable 2.3 mph - N/A   Clear
2:00 AM 73.4 °F - 62.6 °F 69% 29.86 in - NW 2.3 mph - N/A   Clear
3:00 AM 73.4 °F - 62.6 °F 69% 29.86 in - NNW 3.5 mph - N/A   Clear
4:00 AM 73.4 °F - 62.6 °F 69% 29.86 in - Variable 2.3 mph - N/A   Clear
5:00 AM 73.4 °F - 62.6 °F 69% 29.89 in - Variable 2.3 mph - N/A   Clear
6:00 AM 73.4 °F - 62.6 °F 69% 29.89 in 6.2 mi WSW 3.5 mph - N/A   Mostly Cloudy
7:00 AM 73.4 °F - 64.4 °F 73% 29.89 in 6.2 mi NNW 2.3 mph - N/A   Mostly Cloudy
8:00 AM 75.2 °F - 66.2 °F 73% 29.89 in 6.2 mi Variable 2.3 mph - N/A   Mostly Cloudy
9:00 AM 78.8 °F - 66.2 °F 65% 29.89 in 6.2 mi Variable 2.3 mph - N/A   Mostly Cloudy
10:00 AM 80.6 °F 82.7 °F 66.2 °F 61% 29.89 in 6.2 mi SSW 5.8 mph - N/A   Mostly Cloudy
1:00 PM 86.0 °F 86.6 °F 62.6 °F 45% 29.83 in 6.2 mi SSE 5.8 mph - N/A   Mostly Cloudy
2:00 PM 84.2 °F 85.0 °F 62.6 °F 48% 29.83 in 6.2 mi ESE 5.8 mph - N/A   Mostly Cloudy
3:00 PM 86.0 °F 86.6 °F 62.6 °F 45% 29.83 in - ENE 4.6 mph - N/A   Clear
4:00 PM 82.4 °F 82.9 °F 60.8 °F 48% 29.83 in - North 9.2 mph - N/A   Clear
5:00 PM 78.8 °F - 60.8 °F 54% 29.83 in - NNE 4.6 mph - N/A   Clear
6:00 PM 77.0 °F - 59.0 °F 54% 29.83 in - North 5.8 mph - N/A   Clear
7:00 PM 75.2 °F - 59.0 °F 57% 29.86 in - North 6.9 mph - N/A   Clear
8:00 PM 75.2 °F - 60.8 °F 61% 29.86 in - North 6.9 mph - N/A   Clear
9:00 PM 75.2 °F - 59.0 °F 57% 29.86 in - North 6.9 mph - N/A   Clear
10:00 PM 75.2 °F - 59.0 °F 57% 29.86 in - North 5.8 mph - N/A   Clear
11:00 PM 73.4 °F - 57.2 °F 57% 29.86 in - North 8.1 mph - N/A   Clear